Find Starlink 30349

NORAD ID: 57713 Int'l Des: 2023-129 Owner: SPXS Country: US Constellation: starlink operational
LEOCIRCULAR

Current View

Loading 3D Globe...

About Starlink 30349

Starlink 30349 (NORAD 57713) is a starlink constellation satellite (v2 mini) launched Aug 27, 2023 by SPXS of US. It operates in LEO, CIRCULAR orbit with a mass of 730.00 kg.

Upcoming Passes

Passes for default location (London). Set your location on the main map for personalized predictions.

Altitude History

Loading altitude history...

Two-Line Element Set

1 57713U 23129R 26236.10086203 .00000247 00000-0 18488-4 0 9995
2 57713 43.0038 252.6515 0001222 272.0149 88.0562 15.27577409166145
Epoch: Aug 24, 2026 • Age: 32 hours

Current Status

Altitude 490.2 km
Apogee / Perigee N/A
Velocity 7.62 km/s
Sub-Earth Point -28.90°S, 34.4°W
Launch Date Aug 27, 2023
Age 2.9 years
Type internet

Technical Details

Classification Payload
Mass 730.00 kg
Dry Mass 700.00 kg
Total Mass 730.00 kg
Length 0.30 m
Diameter 4.10 m
Span 29.00 m
Shape Box + pan
Manufacturer SPXS
Bus Type Starlink V2M
Phase Status In Orbit
Owner/State SPXS/US

Most Searched